TimeEDT,TemperatureF,Dew PointF,Humidity,Sea Level PressureIn,VisibilityMPH,Wind Direction,Wind SpeedMPH,Gust SpeedMPH,PrecipitationIn,Events,Conditions,WindDirDegrees,DateUTC
12:53 AM,73.9,72.0,93,29.82,10.0,SSW,4.6,-,N/A,,Clear,210,2012-10-01 04:53:00
1:53 AM,73.9,71.1,91,29.81,10.0,South,3.5,-,N/A,,Clear,180,2012-10-01 05:53:00
2:53 AM,73.0,71.1,93,29.78,10.0,Calm,Calm,-,N/A,,Clear,0,2012-10-01 06:53:00
3:53 AM,73.0,70.0,90,29.78,10.0,Calm,Calm,-,N/A,,Clear,0,2012-10-01 07:53:00
4:53 AM,72.0,70.0,93,29.78,10.0,South,3.5,-,N/A,,Clear,170,2012-10-01 08:53:00
5:53 AM,71.1,69.1,93,29.78,10.0,Calm,Calm,-,N/A,,Clear,0,2012-10-01 09:53:00
6:53 AM,71.1,68.0,90,29.78,10.0,Calm,Calm,-,N/A,,Clear,0,2012-10-01 10:53:00
8:53 AM,75.9,73.0,91,29.80,10.0,South,4.6,-,N/A,,Clear,180,2012-10-01 12:53:00
9:53 AM,82.0,73.0,74,29.80,10.0,SSE,6.9,-,N/A,,Clear,160,2012-10-01 13:53:00
10:53 AM,84.9,72.0,65,29.80,10.0,Variable,6.9,-,N/A,,Clear,0,2012-10-01 14:53:00
11:53 AM,88.0,71.1,57,29.80,10.0,South,9.2,-,N/A,,Mostly Cloudy,190,2012-10-01 15:53:00
12:53 PM,89.1,71.1,55,29.79,10.0,SSW,10.4,-,N/A,,Scattered Clouds,200,2012-10-01 16:53:00
2:53 PM,87.1,73.9,65,29.74,10.0,SE,9.2,-,N/A,,Mostly Cloudy,140,2012-10-01 18:53:00
3:53 PM,86.0,73.9,67,29.73,10.0,SE,10.4,-,N/A,,Overcast,140,2012-10-01 19:53:00
4:53 PM,82.0,75.0,79,29.73,10.0,SE,9.2,-,N/A,,Mostly Cloudy,140,2012-10-01 20:53:00
5:53 PM,80.1,75.9,87,29.73,10.0,ESE,5.8,-,0.07,,Partly Cloudy,120,2012-10-01 21:53:00
6:26 PM,80.6,75.2,84,29.74,10.0,South,6.9,-,N/A,Thunderstorm,Thunderstorm,170,2012-10-01 22:26:00
6:53 PM,80.1,77.0,90,29.75,7.0,South,6.9,-,0.03,Rain-Thunderstorm,Light Thunderstorms and Rain,170,2012-10-01 22:53:00
7:28 PM,78.8,75.2,89,29.74,10.0,SSE,5.8,-,0.02,,Mostly Cloudy,160,2012-10-01 23:28:00
7:53 PM,79.0,75.0,88,29.74,10.0,SSE,5.8,-,0.02,,Mostly Cloudy,160,2012-10-01 23:53:00
8:53 PM,78.1,75.0,90,29.76,10.0,SSE,5.8,-,N/A,,Mostly Cloudy,160,2012-10-02 00:53:00
9:53 PM,78.1,73.9,87,29.78,10.0,Calm,Calm,-,N/A,,Partly Cloudy,0,2012-10-02 01:53:00
10:53 PM,77.0,73.9,90,29.78,10.0,SSE,3.5,-,N/A,,Clear,150,2012-10-02 02:53:00
11:53 PM,77.0,73.9,90,29.78,10.0,South,4.6,-,N/A,,Clear,180,2012-10-02 03:53:00